Simultaneous Nadir Overpasses (SNOs) Predictions

Prediction of SNOs between NOAA-19 and TERRA Satellite Orbit:

Table of predicted SNOs for the next 14.0 days since TLE Epoch: 4/15/2023
Index Date (NOAA-19) Time (NOAA-19) Lat,Lon (NOAA-19) SZA (NOAA-19 ) Date (TERRA) Time (TERRA) Lat,Lon (TERRA) SZA (TERRA ) Distance(km) Time Diff (sec)
1 04/15/2023 16:45:13 -80.93, 142.86 107.35 04/15/2023 16:45:35 -80.92, 142.94 107.34 1.82 22
2 04/15/2023 17:36:08 80.93, -49.20 72.71 04/15/2023 17:34:57 80.92, -49.35 72.66 2.80 71
3 04/17/2023 20:35:45 80.93, -94.64 71.92 04/17/2023 20:36:03 80.92, -94.66 71.92 0.95 18
4 04/20/2023 00:26:24 -80.93, 27.62 108.83 04/20/2023 00:26:31 -80.92, 27.71 108.83 1.64 7
5 04/22/2023 04:16:55 80.93, 150.00 70.45 04/22/2023 04:16:58 80.93, 150.14 70.47 2.37 3
6 04/24/2023 08:07:34 -80.93, -87.55 110.25 04/24/2023 08:07:25 -80.93, -87.47 110.25 1.42 9
7 04/26/2023 11:58:03 80.93, 35.15 69.09 04/26/2023 11:57:51 80.94, 34.98 69.08 2.98 12



Historial Predications of SNOs between NOAA-19 and TERRA
